owner,sensor,date,latitude,longitude,relative_humidity,qcFlag 
DISL,ioos:station:DISL:CATA:1,2012-04-01T00:00:00Z,30.3085,-88.1395,79.13,1111122 
DISL,ioos:station:DISL:CATA:1,2012-04-01T00:30:00Z,30.3085,-88.1395,77.38,1111122 
DISL,ioos:station:DISL:CATA:1,2012-04-01T01:00:00Z,30.3085,-88.1395,75.94,1111122 
DISL,ioos:station:DISL:CATA:1,2012-04-01T01:30:00Z,30.3085,-88.1395,72.96,1111122 
DISL,ioos:station:DISL:CATA:1,2012-04-01T02:00:00Z,30.3085,-88.1395,76.8,1111122 
DISL,ioos:station:DISL:CATA:1,2012-04-01T02:30:00Z,30.3085,-88.1395,77.52,1111122 
DISL,ioos:station:DISL:CATA:1,2012-04-01T03:00:00Z,30.3085,-88.1395,79.17,1111122 
DISL,ioos:station:DISL:CATA:1,2012-04-01T03:30:00Z,30.3085,-88.1395,77.94,1111122 
DISL,ioos:station:DISL:CATA:1,2012-04-01T04:00:00Z,30.3085,-88.1395,76.74,1111122 
DISL,ioos:station:DISL:CATA:1,2012-04-01T04:30:00Z,30.3085,-88.1395,78.49,1111122 
DISL,ioos:station:DISL:CATA:1,2012-04-01T05:00:00Z,30.3085,-88.1395,78.83,1111122 
DISL,ioos:station:DISL:CATA:1,2012-04-01T05:30:00Z,30.3085,-88.1395,78.6,1111122 
DISL,ioos:station:DISL:CATA:1,2012-04-01T06:00:00Z,30.3085,-88.1395,78.16,1111122 
DISL,ioos:station:DISL:CATA:1,2012-04-01T06:30:00Z,30.3085,-88.1395,78.02,1111122 
DISL,ioos:station:DISL:CATA:1,2012-04-01T07:00:00Z,30.3085,-88.1395,80.3,1111122 
DISL,ioos:station:DISL:CATA:1,2012-04-01T07:30:00Z,30.3085,-88.1395,83.2,1111122 
DISL,ioos:station:DISL:CATA:1,2012-04-01T08:00:00Z,30.3085,-88.1395,83.8,1111122 
DISL,ioos:station:DISL:CATA:1,2012-04-01T08:30:00Z,30.3085,-88.1395,80.9,1111122 
DISL,ioos:station:DISL:CATA:1,2012-04-01T09:00:00Z,30.3085,-88.1395,81.8,1111122 
DISL,ioos:station:DISL:CATA:1,2012-04-01T09:30:00Z,30.3085,-88.1395,81.1,1111122 
DISL,ioos:station:DISL:CATA:1,2012-04-01T10:00:00Z,30.3085,-88.1395,81.4,1111122 
DISL,ioos:station:DISL:CATA:1,2012-04-01T10:30:00Z,30.3085,-88.1395,81.2,1111122 
DISL,ioos:station:DISL:CATA:1,2012-04-01T11:00:00Z,30.3085,-88.1395,82.1,1111122 
DISL,ioos:station:DISL:CATA:1,2012-04-01T11:30:00Z,30.3085,-88.1395,80.9,1111122 
DISL,ioos:station:DISL:CATA:1,2012-04-01T12:00:00Z,30.3085,-88.1395,82.8,1111122 
DISL,ioos:station:DISL:CATA:1,2012-04-01T12:30:00Z,30.3085,-88.1395,87.3,1111122 
DISL,ioos:station:DISL:CATA:1,2012-04-01T13:00:00Z,30.3085,-88.1395,86.2,1111122 
DISL,ioos:station:DISL:CATA:1,2012-04-01T13:30:00Z,30.3085,-88.1395,85.7,1111122 
DISL,ioos:station:DISL:CATA:1,2012-04-01T14:00:00Z,30.3085,-88.1395,83.4,1111122 
DISL,ioos:station:DISL:CATA:1,2012-04-01T14:30:00Z,30.3085,-88.1395,81.6,1111122 
DISL,ioos:station:DISL:CATA:1,2012-04-01T15:00:00Z,30.3085,-88.1395,81.5,1111122 
DISL,ioos:station:DISL:CATA:1,2012-04-01T15:30:00Z,30.3085,-88.1395,76.53,1111122 
DISL,ioos:station:DISL:CATA:1,2012-04-01T16:00:00Z,30.3085,-88.1395,79.75,1111122 
DISL,ioos:station:DISL:CATA:1,2012-04-01T16:30:00Z,30.3085,-88.1395,77.87,1111122 
DISL,ioos:station:DISL:CATA:1,2012-04-01T17:00:00Z,30.3085,-88.1395,76.74,1111122 
DISL,ioos:station:DISL:CATA:1,2012-04-01T17:30:00Z,30.3085,-88.1395,75.31,1111122 
DISL,ioos:station:DISL:CATA:1,2012-04-01T18:00:00Z,30.3085,-88.1395,74.73,1111122 
DISL,ioos:station:DISL:CATA:1,2012-04-01T18:30:00Z,30.3085,-88.1395,73.83,1111122 
DISL,ioos:station:DISL:CATA:1,2012-04-01T19:00:00Z,30.3085,-88.1395,74.59,1111122 
DISL,ioos:station:DISL:CATA:1,2012-04-01T19:30:00Z,30.3085,-88.1395,74.69,1111122 
DISL,ioos:station:DISL:CATA:1,2012-04-01T20:00:00Z,30.3085,-88.1395,74.59,1111122 
DISL,ioos:station:DISL:CATA:1,2012-04-01T20:30:00Z,30.3085,-88.1395,72.49,1111122 
DISL,ioos:station:DISL:CATA:1,2012-04-01T21:00:00Z,30.3085,-88.1395,72.84,1111122 
DISL,ioos:station:DISL:CATA:1,2012-04-01T21:30:00Z,30.3085,-88.1395,70.51,1111122 
DISL,ioos:station:DISL:CATA:1,2012-04-01T22:00:00Z,30.3085,-88.1395,70.79,1111122 
DISL,ioos:station:DISL:CATA:1,2012-04-01T22:30:00Z,30.3085,-88.1395,71.9,1111122 
DISL,ioos:station:DISL:CATA:1,2012-04-01T23:00:00Z,30.3085,-88.1395,73.75,1111122 
DISL,ioos:station:DISL:CATA:1,2012-04-01T23:30:00Z,30.3085,-88.1395,72.1,1111122 
DISL,ioos:station:DISL:CATA:1,2012-04-02T00:00:00Z,30.3085,-88.1395,73.13,1111122 
DISL,ioos:station:DISL:CATA:1,2012-04-02T00:30:00Z,30.3085,-88.1395,74.67,1111122 
DISL,ioos:station:DISL:CATA:1,2012-04-02T01:00:00Z,30.3085,-88.1395,76.39,1111122 
DISL,ioos:station:DISL:CATA:1,2012-04-02T01:30:00Z,30.3085,-88.1395,75.19,1111122 
DISL,ioos:station:DISL:CATA:1,2012-04-02T02:00:00Z,30.3085,-88.1395,74.64,1111122 
DISL,ioos:station:DISL:CATA:1,2012-04-02T02:30:00Z,30.3085,-88.1395,76.36,1111122 
DISL,ioos:station:DISL:CATA:1,2012-04-02T03:00:00Z,30.3085,-88.1395,78.31,1111122 
DISL,ioos:station:DISL:CATA:1,2012-04-02T03:30:00Z,30.3085,-88.1395,77.87,1111122 
DISL,ioos:station:DISL:CATA:1,2012-04-02T04:00:00Z,30.3085,-88.1395,79.61,1111122 
DISL,ioos:station:DISL:CATA:1,2012-04-02T04:30:00Z,30.3085,-88.1395,80.6,1111122 
DISL,ioos:station:DISL:CATA:1,2012-04-02T05:00:00Z,30.3085,-88.1395,79.34,1111122 
DISL,ioos:station:DISL:CATA:1,2012-04-02T05:30:00Z,30.3085,-88.1395,79.14,1111122 
DISL,ioos:station:DISL:CATA:1,2012-04-02T06:00:00Z,30.3085,-88.1395,80.7,1111122 
DISL,ioos:station:DISL:CATA:1,2012-04-02T06:30:00Z,30.3085,-88.1395,81.5,1111122 
DISL,ioos:station:DISL:CATA:1,2012-04-02T07:00:00Z,30.3085,-88.1395,82.8,1111122 
DISL,ioos:station:DISL:CATA:1,2012-04-02T07:30:00Z,30.3085,-88.1395,81.2,1111122 
DISL,ioos:station:DISL:CATA:1,2012-04-02T08:00:00Z,30.3085,-88.1395,82.7,1111122 
DISL,ioos:station:DISL:CATA:1,2012-04-02T08:30:00Z,30.3085,-88.1395,81.9,1111122 
DISL,ioos:station:DISL:CATA:1,2012-04-02T09:00:00Z,30.3085,-88.1395,81.6,1111122 
DISL,ioos:station:DISL:CATA:1,2012-04-02T09:30:00Z,30.3085,-88.1395,82.3,1111122 
DISL,ioos:station:DISL:CATA:1,2012-04-02T10:00:00Z,30.3085,-88.1395,82.4,1111122 
DISL,ioos:station:DISL:CATA:1,2012-04-02T10:30:00Z,30.3085,-88.1395,83.2,1111122 
DISL,ioos:station:DISL:CATA:1,2012-04-02T11:00:00Z,30.3085,-88.1395,83.8,1111122 
DISL,ioos:station:DISL:CATA:1,2012-04-02T11:30:00Z,30.3085,-88.1395,83.6,1111122 
DISL,ioos:station:DISL:CATA:1,2012-04-02T12:00:00Z,30.3085,-88.1395,81.3,1111122 
DISL,ioos:station:DISL:CATA:1,2012-04-02T12:30:00Z,30.3085,-88.1395,78.36,1111122 
DISL,ioos:station:DISL:CATA:1,2012-04-02T13:00:00Z,30.3085,-88.1395,81.0,1111122 
DISL,ioos:station:DISL:CATA:1,2012-04-02T13:30:00Z,30.3085,-88.1395,78.75,1111122 
DISL,ioos:station:DISL:CATA:1,2012-04-02T14:00:00Z,30.3085,-88.1395,78.79,1111122 
DISL,ioos:station:DISL:CATA:1,2012-04-02T14:30:00Z,30.3085,-88.1395,78.38,1111122 
DISL,ioos:station:DISL:CATA:1,2012-04-02T15:00:00Z,30.3085,-88.1395,75.36,1111122 
DISL,ioos:station:DISL:CATA:1,2012-04-02T15:30:00Z,30.3085,-88.1395,72.57,1111122 
DISL,ioos:station:DISL:CATA:1,2012-04-02T16:00:00Z,30.3085,-88.1395,75.54,1111122 
DISL,ioos:station:DISL:CATA:1,2012-04-02T16:30:00Z,30.3085,-88.1395,75.51,1111122 
DISL,ioos:station:DISL:CATA:1,2012-04-02T17:00:00Z,30.3085,-88.1395,75.38,1111122 
DISL,ioos:station:DISL:CATA:1,2012-04-02T17:30:00Z,30.3085,-88.1395,74.14,1111122 
DISL,ioos:station:DISL:CATA:1,2012-04-02T18:00:00Z,30.3085,-88.1395,73.24,1111122 
DISL,ioos:station:DISL:CATA:1,2012-04-02T18:30:00Z,30.3085,-88.1395,73.86,1111122 
DISL,ioos:station:DISL:CATA:1,2012-04-02T19:00:00Z,30.3085,-88.1395,73.62,1111122 
DISL,ioos:station:DISL:CATA:1,2012-04-02T19:30:00Z,30.3085,-88.1395,73.76,1111122 
DISL,ioos:station:DISL:CATA:1,2012-04-02T20:00:00Z,30.3085,-88.1395,74.79,1111122 
DISL,ioos:station:DISL:CATA:1,2012-04-02T20:30:00Z,30.3085,-88.1395,76.06,1111122 
DISL,ioos:station:DISL:CATA:1,2012-04-02T21:00:00Z,30.3085,-88.1395,76.23,1111122 
DISL,ioos:station:DISL:CATA:1,2012-04-02T21:30:00Z,30.3085,-88.1395,75.79,1111122 
DISL,ioos:station:DISL:CATA:1,2012-04-02T22:00:00Z,30.3085,-88.1395,76.96,1111122 
DISL,ioos:station:DISL:CATA:1,2012-04-02T22:30:00Z,30.3085,-88.1395,74.46,1111122 
DISL,ioos:station:DISL:CATA:1,2012-04-02T23:00:00Z,30.3085,-88.1395,76.38,1111122 
DISL,ioos:station:DISL:CATA:1,2012-04-02T23:30:00Z,30.3085,-88.1395,76.46,1111122 
DISL,ioos:station:DISL:CATA:1,2012-04-03T00:00:00Z,30.3085,-88.1395,78.44,1111122 
DISL,ioos:station:DISL:CATA:1,2012-04-03T00:30:00Z,30.3085,-88.1395,81.2,1111122 
DISL,ioos:station:DISL:CATA:1,2012-04-03T01:00:00Z,30.3085,-88.1395,81.4,1111122 
DISL,ioos:station:DISL:CATA:1,2012-04-03T01:30:00Z,30.3085,-88.1395,80.5,1111122 
DISL,ioos:station:DISL:CATA:1,2012-04-03T02:00:00Z,30.3085,-88.1395,80.0,1111122 
DISL,ioos:station:DISL:CATA:1,2012-04-03T02:30:00Z,30.3085,-88.1395,80.5,1111122 
DISL,ioos:station:DISL:CATA:1,2012-04-03T03:00:00Z,30.3085,-88.1395,81.4,1111122 
DISL,ioos:station:DISL:CATA:1,2012-04-03T03:30:00Z,30.3085,-88.1395,78.25,1111122 
DISL,ioos:station:DISL:CATA:1,2012-04-03T04:00:00Z,30.3085,-88.1395,83.9,1111122 
DISL,ioos:station:DISL:CATA:1,2012-04-03T04:30:00Z,30.3085,-88.1395,82.9,1111122 
DISL,ioos:station:DISL:CATA:1,2012-04-03T05:00:00Z,30.3085,-88.1395,79.8,1111122 
DISL,ioos:station:DISL:CATA:1,2012-04-03T05:30:00Z,30.3085,-88.1395,76.44,1111122 
DISL,ioos:station:DISL:CATA:1,2012-04-03T06:00:00Z,30.3085,-88.1395,80.0,1111122 
DISL,ioos:station:DISL:CATA:1,2012-04-03T06:30:00Z,30.3085,-88.1395,77.43,1111122 
DISL,ioos:station:DISL:CATA:1,2012-04-03T07:00:00Z,30.3085,-88.1395,78.46,1111122 
DISL,ioos:station:DISL:CATA:1,2012-04-03T07:30:00Z,30.3085,-88.1395,84.3,1111122 
DISL,ioos:station:DISL:CATA:1,2012-04-03T08:00:00Z,30.3085,-88.1395,83.3,1111122 
DISL,ioos:station:DISL:CATA:1,2012-04-03T08:30:00Z,30.3085,-88.1395,83.6,1111122 
DISL,ioos:station:DISL:CATA:1,2012-04-03T09:00:00Z,30.3085,-88.1395,78.88,1111122 
DISL,ioos:station:DISL:CATA:1,2012-04-03T09:30:00Z,30.3085,-88.1395,75.82,1111122 
DISL,ioos:station:DISL:CATA:1,2012-04-03T10:00:00Z,30.3085,-88.1395,79.39,1111122 
DISL,ioos:station:DISL:CATA:1,2012-04-03T10:30:00Z,30.3085,-88.1395,82.2,1111122 
DISL,ioos:station:DISL:CATA:1,2012-04-03T11:00:00Z,30.3085,-88.1395,75.48,1111122 
DISL,ioos:station:DISL:CATA:1,2012-04-03T11:30:00Z,30.3085,-88.1395,80.8,1111122 
DISL,ioos:station:DISL:CATA:1,2012-04-03T12:00:00Z,30.3085,-88.1395,82.8,1111122 
DISL,ioos:station:DISL:CATA:1,2012-04-03T12:30:00Z,30.3085,-88.1395,81.0,1111122 
DISL,ioos:station:DISL:CATA:1,2012-04-03T13:00:00Z,30.3085,-88.1395,78.27,1111122 
DISL,ioos:station:DISL:CATA:1,2012-04-03T13:30:00Z,30.3085,-88.1395,75.9,1111122 
DISL,ioos:station:DISL:CATA:1,2012-04-03T14:00:00Z,30.3085,-88.1395,69.83,1111122 
DISL,ioos:station:DISL:CATA:1,2012-04-03T14:30:00Z,30.3085,-88.1395,65.89,1111122 
DISL,ioos:station:DISL:CATA:1,2012-04-03T15:00:00Z,30.3085,-88.1395,65.74,1111122 
DISL,ioos:station:DISL:CATA:1,2012-04-03T15:30:00Z,30.3085,-88.1395,64.36,1111122 
DISL,ioos:station:DISL:CATA:1,2012-04-03T16:00:00Z,30.3085,-88.1395,63.33,1111122 
DISL,ioos:station:DISL:CATA:1,2012-04-03T16:30:00Z,30.3085,-88.1395,58.22,1111122 
DISL,ioos:station:DISL:CATA:1,2012-04-03T17:00:00Z,30.3085,-88.1395,57.59,1111122 
DISL,ioos:station:DISL:CATA:1,2012-04-03T17:30:00Z,30.3085,-88.1395,58.34,1111122 
DISL,ioos:station:DISL:CATA:1,2012-04-03T18:00:00Z,30.3085,-88.1395,63.75,1111122 
DISL,ioos:station:DISL:CATA:1,2012-04-03T18:30:00Z,30.3085,-88.1395,65.08,1111122 
DISL,ioos:station:DISL:CATA:1,2012-04-03T19:00:00Z,30.3085,-88.1395,63.68,1111122 
DISL,ioos:station:DISL:CATA:1,2012-04-03T19:30:00Z,30.3085,-88.1395,63.69,1111122 
DISL,ioos:station:DISL:CATA:1,2012-04-03T20:00:00Z,30.3085,-88.1395,69.0,1111122 
DISL,ioos:station:DISL:CATA:1,2012-04-03T20:30:00Z,30.3085,-88.1395,66.19,1111122 
DISL,ioos:station:DISL:CATA:1,2012-04-03T21:00:00Z,30.3085,-88.1395,65.88,1111122 
DISL,ioos:station:DISL:CATA:1,2012-04-03T21:30:00Z,30.3085,-88.1395,69.03,1111122 
DISL,ioos:station:DISL:CATA:1,2012-04-03T22:00:00Z,30.3085,-88.1395,66.8,1111122 
DISL,ioos:station:DISL:CATA:1,2012-04-03T22:30:00Z,30.3085,-88.1395,67.84,1111122 
DISL,ioos:station:DISL:CATA:1,2012-04-03T23:00:00Z,30.3085,-88.1395,69.97,1111122 
DISL,ioos:station:DISL:CATA:1,2012-04-03T23:30:00Z,30.3085,-88.1395,72.58,1111122 
DISL,ioos:station:DISL:CATA:1,2012-04-04T00:00:00Z,30.3085,-88.1395,74.88,1111122 
DISL,ioos:station:DISL:CATA:1,2012-04-04T00:30:00Z,30.3085,-88.1395,79.1,1111122 
DISL,ioos:station:DISL:CATA:1,2012-04-04T01:00:00Z,30.3085,-88.1395,80.6,1111122 
DISL,ioos:station:DISL:CATA:1,2012-04-04T01:30:00Z,30.3085,-88.1395,80.8,1111122 
DISL,ioos:station:DISL:CATA:1,2012-04-04T02:00:00Z,30.3085,-88.1395,81.4,1111122 
DISL,ioos:station:DISL:CATA:1,2012-04-04T02:30:00Z,30.3085,-88.1395,82.2,1111122 
DISL,ioos:station:DISL:CATA:1,2012-04-04T03:00:00Z,30.3085,-88.1395,82.8,1111122 
DISL,ioos:station:DISL:CATA:1,2012-04-04T03:30:00Z,30.3085,-88.1395,82.7,1111122 
DISL,ioos:station:DISL:CATA:1,2012-04-04T04:00:00Z,30.3085,-88.1395,83.2,1111122 
DISL,ioos:station:DISL:CATA:1,2012-04-04T04:30:00Z,30.3085,-88.1395,84.5,1111122 
DISL,ioos:station:DISL:CATA:1,2012-04-04T05:00:00Z,30.3085,-88.1395,85.1,1111122 
DISL,ioos:station:DISL:CATA:1,2012-04-04T05:30:00Z,30.3085,-88.1395,86.0,1111122 
DISL,ioos:station:DISL:CATA:1,2012-04-04T06:00:00Z,30.3085,-88.1395,85.9,1111122 
DISL,ioos:station:DISL:CATA:1,2012-04-04T06:30:00Z,30.3085,-88.1395,85.8,1111122 
DISL,ioos:station:DISL:CATA:1,2012-04-04T07:00:00Z,30.3085,-88.1395,86.0,1111122 
DISL,ioos:station:DISL:CATA:1,2012-04-04T07:30:00Z,30.3085,-88.1395,86.4,1111122 
DISL,ioos:station:DISL:CATA:1,2012-04-04T08:00:00Z,30.3085,-88.1395,74.73,1111122 
DISL,ioos:station:DISL:CATA:1,2012-04-04T08:30:00Z,30.3085,-88.1395,90.5,1111122 
DISL,ioos:station:DISL:CATA:1,2012-04-04T09:00:00Z,30.3085,-88.1395,86.9,1111122 
DISL,ioos:station:DISL:CATA:1,2012-04-04T09:30:00Z,30.3085,-88.1395,71.74,1111122 
DISL,ioos:station:DISL:CATA:1,2012-04-04T10:00:00Z,30.3085,-88.1395,74.55,1111122 
DISL,ioos:station:DISL:CATA:1,2012-04-04T10:30:00Z,30.3085,-88.1395,65.84,1111122 
DISL,ioos:station:DISL:CATA:1,2012-04-04T11:00:00Z,30.3085,-88.1395,80.6,1111122 
DISL,ioos:station:DISL:CATA:1,2012-04-04T11:30:00Z,30.3085,-88.1395,81.5,1111122 
DISL,ioos:station:DISL:CATA:1,2012-04-04T12:00:00Z,30.3085,-88.1395,78.26,1111122 
DISL,ioos:station:DISL:CATA:1,2012-04-04T12:30:00Z,30.3085,-88.1395,67.28,1111122 
DISL,ioos:station:DISL:CATA:1,2012-04-04T13:00:00Z,30.3085,-88.1395,71.57,1111122 
DISL,ioos:station:DISL:CATA:1,2012-04-04T13:30:00Z,30.3085,-88.1395,75.65,1111122 
DISL,ioos:station:DISL:CATA:1,2012-04-04T14:00:00Z,30.3085,-88.1395,79.73,1111122 
DISL,ioos:station:DISL:CATA:1,2012-04-04T14:30:00Z,30.3085,-88.1395,82.1,1111122 
DISL,ioos:station:DISL:CATA:1,2012-04-04T15:00:00Z,30.3085,-88.1395,83.1,1111122 
DISL,ioos:station:DISL:CATA:1,2012-04-04T15:30:00Z,30.3085,-88.1395,82.2,1111122 
DISL,ioos:station:DISL:CATA:1,2012-04-04T16:00:00Z,30.3085,-88.1395,81.8,1111122 
DISL,ioos:station:DISL:CATA:1,2012-04-04T16:30:00Z,30.3085,-88.1395,83.1,1111122 
DISL,ioos:station:DISL:CATA:1,2012-04-04T17:00:00Z,30.3085,-88.1395,80.5,1111122 
DISL,ioos:station:DISL:CATA:1,2012-04-04T17:30:00Z,30.3085,-88.1395,78.74,1111122 
DISL,ioos:station:DISL:CATA:1,2012-04-04T18:00:00Z,30.3085,-88.1395,71.4,1111122 
DISL,ioos:station:DISL:CATA:1,2012-04-04T18:30:00Z,30.3085,-88.1395,65.42,1111122 
DISL,ioos:station:DISL:CATA:1,2012-04-04T19:00:00Z,30.3085,-88.1395,64.11,1111122 
DISL,ioos:station:DISL:CATA:1,2012-04-04T19:30:00Z,30.3085,-88.1395,66.68,1111122 
DISL,ioos:station:DISL:CATA:1,2012-04-04T20:00:00Z,30.3085,-88.1395,68.5,1111122 
DISL,ioos:station:DISL:CATA:1,2012-04-04T20:30:00Z,30.3085,-88.1395,70.59,1111122 
DISL,ioos:station:DISL:CATA:1,2012-04-04T21:00:00Z,30.3085,-88.1395,72.54,1111122 
DISL,ioos:station:DISL:CATA:1,2012-04-04T21:30:00Z,30.3085,-88.1395,74.91,1111122 
DISL,ioos:station:DISL:CATA:1,2012-04-04T22:00:00Z,30.3085,-88.1395,74.63,1111122 
DISL,ioos:station:DISL:CATA:1,2012-04-04T22:30:00Z,30.3085,-88.1395,72.81,1111122 
DISL,ioos:station:DISL:CATA:1,2012-04-04T23:00:00Z,30.3085,-88.1395,74.22,1111122 
DISL,ioos:station:DISL:CATA:1,2012-04-04T23:30:00Z,30.3085,-88.1395,76.21,1111122 
DISL,ioos:station:DISL:CATA:1,2012-04-05T00:00:00Z,30.3085,-88.1395,77.55,1111122 
DISL,ioos:station:DISL:CATA:1,2012-04-05T00:30:00Z,30.3085,-88.1395,79.12,1111122 
DISL,ioos:station:DISL:CATA:1,2012-04-05T01:00:00Z,30.3085,-88.1395,80.2,1111122 
DISL,ioos:station:DISL:CATA:1,2012-04-05T01:30:00Z,30.3085,-88.1395,79.95,1111122 
DISL,ioos:station:DISL:CATA:1,2012-04-05T02:00:00Z,30.3085,-88.1395,80.6,1111122 
DISL,ioos:station:DISL:CATA:1,2012-04-05T02:30:00Z,30.3085,-88.1395,79.81,1111122 
DISL,ioos:station:DISL:CATA:1,2012-04-05T03:00:00Z,30.3085,-88.1395,79.81,1111122 
DISL,ioos:station:DISL:CATA:1,2012-04-05T03:30:00Z,30.3085,-88.1395,79.47,1111122 
DISL,ioos:station:DISL:CATA:1,2012-04-05T04:00:00Z,30.3085,-88.1395,85.1,1111122 
DISL,ioos:station:DISL:CATA:1,2012-04-05T04:30:00Z,30.3085,-88.1395,79.14,1111122 
DISL,ioos:station:DISL:CATA:1,2012-04-05T05:00:00Z,30.3085,-88.1395,79.14,1111122 
DISL,ioos:station:DISL:CATA:1,2012-04-05T05:30:00Z,30.3085,-88.1395,82.5,1111122 
DISL,ioos:station:DISL:CATA:1,2012-04-05T06:00:00Z,30.3085,-88.1395,82.1,1111122 
DISL,ioos:station:DISL:CATA:1,2012-04-05T06:30:00Z,30.3085,-88.1395,82.4,1111122 
DISL,ioos:station:DISL:CATA:1,2012-04-05T07:00:00Z,30.3085,-88.1395,82.6,1111122 
DISL,ioos:station:DISL:CATA:1,2012-04-05T07:30:00Z,30.3085,-88.1395,82.2,1111122 
DISL,ioos:station:DISL:CATA:1,2012-04-05T08:00:00Z,30.3085,-88.1395,83.2,1111122 
DISL,ioos:station:DISL:CATA:1,2012-04-05T08:30:00Z,30.3085,-88.1395,83.7,1111122 
DISL,ioos:station:DISL:CATA:1,2012-04-05T09:00:00Z,30.3085,-88.1395,87.5,1111122 
DISL,ioos:station:DISL:CATA:1,2012-04-05T09:30:00Z,30.3085,-88.1395,87.9,1111122 
DISL,ioos:station:DISL:CATA:1,2012-04-05T10:00:00Z,30.3085,-88.1395,82.6,1111122 
DISL,ioos:station:DISL:CATA:1,2012-04-05T10:30:00Z,30.3085,-88.1395,81.4,1111122 
DISL,ioos:station:DISL:CATA:1,2012-04-05T11:00:00Z,30.3085,-88.1395,81.0,1111122 
DISL,ioos:station:DISL:CATA:1,2012-04-05T11:30:00Z,30.3085,-88.1395,79.14,1111122 
DISL,ioos:station:DISL:CATA:1,2012-04-05T12:00:00Z,30.3085,-88.1395,75.6,1111122 
DISL,ioos:station:DISL:CATA:1,2012-04-05T12:30:00Z,30.3085,-88.1395,77.69,1111122 
DISL,ioos:station:DISL:CATA:1,2012-04-05T13:00:00Z,30.3085,-88.1395,80.4,1111122 
DISL,ioos:station:DISL:CATA:1,2012-04-05T13:30:00Z,30.3085,-88.1395,78.99,1111122 
DISL,ioos:station:DISL:CATA:1,2012-04-05T14:00:00Z,30.3085,-88.1395,83.1,1111122 
DISL,ioos:station:DISL:CATA:1,2012-04-05T14:30:00Z,30.3085,-88.1395,83.7,1111122 
DISL,ioos:station:DISL:CATA:1,2012-04-05T15:00:00Z,30.3085,-88.1395,83.5,1111122 
DISL,ioos:station:DISL:CATA:1,2012-04-05T15:30:00Z,30.3085,-88.1395,83.1,1111122 
DISL,ioos:station:DISL:CATA:1,2012-04-05T16:00:00Z,30.3085,-88.1395,75.63,1111122 
DISL,ioos:station:DISL:CATA:1,2012-04-05T16:30:00Z,30.3085,-88.1395,82.7,1111122 
DISL,ioos:station:DISL:CATA:1,2012-04-05T17:00:00Z,30.3085,-88.1395,82.9,1111122 
DISL,ioos:station:DISL:CATA:1,2012-04-05T17:30:00Z,30.3085,-88.1395,82.3,1111122 
DISL,ioos:station:DISL:CATA:1,2012-04-05T18:00:00Z,30.3085,-88.1395,74.33,1111122 
DISL,ioos:station:DISL:CATA:1,2012-04-05T18:30:00Z,30.3085,-88.1395,78.55,1111122 
DISL,ioos:station:DISL:CATA:1,2012-04-05T19:00:00Z,30.3085,-88.1395,77.86,1111122 
DISL,ioos:station:DISL:CATA:1,2012-04-05T19:30:00Z,30.3085,-88.1395,75.7,1111122 
DISL,ioos:station:DISL:CATA:1,2012-04-05T20:00:00Z,30.3085,-88.1395,73.99,1111122 
DISL,ioos:station:DISL:CATA:1,2012-04-05T20:30:00Z,30.3085,-88.1395,76.76,1111122 
DISL,ioos:station:DISL:CATA:1,2012-04-05T21:00:00Z,30.3085,-88.1395,76.8,1111122 
DISL,ioos:station:DISL:CATA:1,2012-04-05T21:30:00Z,30.3085,-88.1395,79.68,1111122 
DISL,ioos:station:DISL:CATA:1,2012-04-05T22:00:00Z,30.3085,-88.1395,79.3,1111122 
DISL,ioos:station:DISL:CATA:1,2012-04-05T22:30:00Z,30.3085,-88.1395,79.75,1111122 
DISL,ioos:station:DISL:CATA:1,2012-04-05T23:00:00Z,30.3085,-88.1395,80.2,1111122 
DISL,ioos:station:DISL:CATA:1,2012-04-05T23:30:00Z,30.3085,-88.1395,81.7,1111122 
DISL,ioos:station:DISL:CATA:1,2012-04-06T00:00:00Z,30.3085,-88.1395,80.1,1111122 
DISL,ioos:station:DISL:CATA:1,2012-04-06T00:30:00Z,30.3085,-88.1395,84.4,1111122 
DISL,ioos:station:DISL:CATA:1,2012-04-06T01:00:00Z,30.3085,-88.1395,78.57,1111122 
DISL,ioos:station:DISL:CATA:1,2012-04-06T01:30:00Z,30.3085,-88.1395,73.89,1111122 
DISL,ioos:station:DISL:CATA:1,2012-04-06T02:00:00Z,30.3085,-88.1395,73.69,1111122 
DISL,ioos:station:DISL:CATA:1,2012-04-06T02:30:00Z,30.3085,-88.1395,72.56,1111122 
DISL,ioos:station:DISL:CATA:1,2012-04-06T03:00:00Z,30.3085,-88.1395,73.21,1111122 
DISL,ioos:station:DISL:CATA:1,2012-04-06T03:30:00Z,30.3085,-88.1395,66.07,1111122 
DISL,ioos:station:DISL:CATA:1,2012-04-06T04:00:00Z,30.3085,-88.1395,73.71,1111122 
DISL,ioos:station:DISL:CATA:1,2012-04-06T04:30:00Z,30.3085,-88.1395,73.14,1111122 
DISL,ioos:station:DISL:CATA:1,2012-04-06T05:00:00Z,30.3085,-88.1395,75.58,1111122 
DISL,ioos:station:DISL:CATA:1,2012-04-06T05:30:00Z,30.3085,-88.1395,74.11,1111122 
DISL,ioos:station:DISL:CATA:1,2012-04-06T06:00:00Z,30.3085,-88.1395,71.67,1111122 
DISL,ioos:station:DISL:CATA:1,2012-04-06T06:30:00Z,30.3085,-88.1395,69.96,1111122 
DISL,ioos:station:DISL:CATA:1,2012-04-06T07:00:00Z,30.3085,-88.1395,69.27,1111122 
DISL,ioos:station:DISL:CATA:1,2012-04-06T07:30:00Z,30.3085,-88.1395,69.24,1111122 
DISL,ioos:station:DISL:CATA:1,2012-04-06T08:00:00Z,30.3085,-88.1395,71.35,1111122 
DISL,ioos:station:DISL:CATA:1,2012-04-06T08:30:00Z,30.3085,-88.1395,73.24,1111122 
DISL,ioos:station:DISL:CATA:1,2012-04-06T09:00:00Z,30.3085,-88.1395,73.31,1111122 
DISL,ioos:station:DISL:CATA:1,2012-04-06T09:30:00Z,30.3085,-88.1395,74.37,1111122 
DISL,ioos:station:DISL:CATA:1,2012-04-06T10:00:00Z,30.3085,-88.1395,71.42,1111122 
DISL,ioos:station:DISL:CATA:1,2012-04-06T10:30:00Z,30.3085,-88.1395,73.65,1111122 
DISL,ioos:station:DISL:CATA:1,2012-04-06T11:00:00Z,30.3085,-88.1395,74.1,1111122 
DISL,ioos:station:DISL:CATA:1,2012-04-06T11:30:00Z,30.3085,-88.1395,78.59,1111122 
DISL,ioos:station:DISL:CATA:1,2012-04-06T12:00:00Z,30.3085,-88.1395,77.19,1111122 
DISL,ioos:station:DISL:CATA:1,2012-04-06T12:30:00Z,30.3085,-88.1395,75.78,1111122 
DISL,ioos:station:DISL:CATA:1,2012-04-06T13:00:00Z,30.3085,-88.1395,74.37,1111122 
DISL,ioos:station:DISL:CATA:1,2012-04-06T13:30:00Z,30.3085,-88.1395,73.72,1111122 
DISL,ioos:station:DISL:CATA:1,2012-04-06T14:00:00Z,30.3085,-88.1395,69.18,1111122 
DISL,ioos:station:DISL:CATA:1,2012-04-06T14:30:00Z,30.3085,-88.1395,66.6,1111122 
DISL,ioos:station:DISL:CATA:1,2012-04-06T15:00:00Z,30.3085,-88.1395,63.2,1111122 
DISL,ioos:station:DISL:CATA:1,2012-04-06T15:30:00Z,30.3085,-88.1395,60.63,1111122 
DISL,ioos:station:DISL:CATA:1,2012-04-06T16:00:00Z,30.3085,-88.1395,57.9,1111122 
DISL,ioos:station:DISL:CATA:1,2012-04-06T16:30:00Z,30.3085,-88.1395,62.12,1111122 
DISL,ioos:station:DISL:CATA:1,2012-04-06T17:00:00Z,30.3085,-88.1395,61.77,1111122 
DISL,ioos:station:DISL:CATA:1,2012-04-06T17:30:00Z,30.3085,-88.1395,68.21,1111122 
DISL,ioos:station:DISL:CATA:1,2012-04-06T18:00:00Z,30.3085,-88.1395,64.68,1111122 
DISL,ioos:station:DISL:CATA:1,2012-04-06T18:30:00Z,30.3085,-88.1395,64.91,1111122 
DISL,ioos:station:DISL:CATA:1,2012-04-06T19:00:00Z,30.3085,-88.1395,68.75,1111122 
DISL,ioos:station:DISL:CATA:1,2012-04-06T19:30:00Z,30.3085,-88.1395,64.67,1111122 
DISL,ioos:station:DISL:CATA:1,2012-04-06T20:00:00Z,30.3085,-88.1395,64.02,1111122 
DISL,ioos:station:DISL:CATA:1,2012-04-06T20:30:00Z,30.3085,-88.1395,65.32,1111122 
DISL,ioos:station:DISL:CATA:1,2012-04-06T21:00:00Z,30.3085,-88.1395,60.08,1111122 
DISL,ioos:station:DISL:CATA:1,2012-04-06T21:30:00Z,30.3085,-88.1395,61.69,1111122 
DISL,ioos:station:DISL:CATA:1,2012-04-06T22:00:00Z,30.3085,-88.1395,56.27,1111122 
DISL,ioos:station:DISL:CATA:1,2012-04-06T22:30:00Z,30.3085,-88.1395,53.02,1111122 
DISL,ioos:station:DISL:CATA:1,2012-04-06T23:00:00Z,30.3085,-88.1395,54.42,1111122 
DISL,ioos:station:DISL:CATA:1,2012-04-06T23:30:00Z,30.3085,-88.1395,55.18,1111122 
DISL,ioos:station:DISL:CATA:1,2012-04-07T00:00:00Z,30.3085,-88.1395,49.46,1111122 